Terminal Aerodrome Forecast
Issued by NWS Springfield, MO

Home | Current Version | Previous Version | Text Only | Print | Product List | Glossary On
Versions: 1 2 3 4 5 6 7 8 9 10 11 12 13 14 15 16 17 18 19 20 21 22 23 24 25 26 27 28
000
FTUS43 KSGF 211120
TAFSGF
TAF
KSGF 211120Z 2112/2212 35004KT 6SM BR OVC015
     FM211300 35005KT 4SM BR OVC015
     FM211500 36008KT P6SM BKN025
     FM211900 36008KT P6SM FEW035
     FM220700 VRB03KT 5SM BR FEW250
     FM220900 VRB03KT 1SM BR FEW100=

USA.gov is the U.S. government's official web portal to all federal, state and local government web resources and services.